Wind_Speed
18 15 13 11 10 9 8 7 6 6 6 5 4 2 2 2 3 4 5 5 5 4 3 3 3 3 4 3 4 6 6 6 7 9 8 6 5 4 5 4 3 5 2
17 15 12 12 11 10 8 7 6 6 5 5 4 3 1 1 1 2 4 4 4 4 4 5 5 5 6 5 5 5 7 8 10 9 8 5 5 4 3 3 4 3 2
19 16 13 12 11 10 9 8 7 6 5 4 3 2 1 1 2 2 3 4 5 5 6 6 6 7 8 9 8 8 9 9 10 10 8 5 6 2 2 1 2 3 4
16 12 12 12 11 10 9 8 7 6 5 4 3 2 2 2 3 4 4 5 6 7 7 6 8 8 9 11 11 10 11 11 11 9 8 7 5 6 2 2 3 4 5
16 13 13 10 9 9 8 8 7 6 4 3 3 3 3 3 4 5 6 6 8 8 8 8 8 9 9 11 11 12 12 12 11 11 8 8 3 6 2 4 5 7 9
15 12 10 9 8 8 7 6 6 4 3 2 2 3 4 5 6 7 7 8 9 10 10 10 10 10 10 11 11 12 13 12 12 9 11 6 2 7 3 8 7 7 8
15 13 12 9 8 6 5 5 4 4 3 2 3 4 5 6 7 8 10 11 11 11 11 12 12 12 11 12 12 12 12 12 13 11 12 7 6 6 5 9 10 8 9
16 12 12 10 9 8 6 6 5 5 4 5 5 5 6 6 7 8 9 11 12 13 13 13 13 13 13 13 13 13 13 13 12 13 14 10 9 9 8 10 11 12 11
14 13 11 8 8 8 7 6 6 6 6 7 8 8 8 7 9 10 10 11 11 12 13 15 15 15 15 15 15 15 15 14 14 13 13 12 8 10 10 12 14 13 13
12 12 10 7 6 6 7 9 9 10 12 11 12 12 8 8 9 11 9 7 12 14 15 17 17 17 17 17 17 17 17 17 17 15 15 14 14 12 11 14 16 15 16
11 10 9 6 6 8 7 10 13 13 13 12 13 14 12 10 10 11 11 13 14 13 13 14 16 19 20 20 20 18 19 20 16 15 17 15 18 15 15 15 17 18 18
11 9 6 6 7 9 6 10 9 10 11 12 15 17 14 14 14 13 13 13 14 10 14 16 14 16 19 21 22 21 24 25 16 18 21 21 18 19 17 15 18 21 21
11 9 6 6 6 8 10 9 10 10 12 11 13 17 15 15 16 16 16 16 16 15 15 16 14 15 12 15 18 21 21 23 19 20 16 22 24 21 18 17 19 22 25
12 8 7 5 7 8 8 7 7 9 10 12 14 16 17 15 17 16 18 17 18 18 18 17 18 19 19 19 20 18 14 16 17 18 14 12 19 17 17 18 20 23 25
12 8 6 6 6 7 5 7 8 8 10 12 11 13 16 16 17 16 16 17 17 18 18 19 20 21 24 25 22 23 21 19 22 24 22 16 17 19 19 20 21 25 28
12 9 6 6 6 6 5 6 7 7 9 9 10 13 12 14 15 15 16 16 16 17 18 19 19 22 23 23 24 25 25 25 22 21 22 25 23 28 26 25 24 28 29
10 8 6 5 5 5 3 5 6 7 7 8 9 11 11 14 15 16 16 16 17 20 20 18 19 20 22 23 23 23 23 25 23 21 21 25 26 27 29 30 30 30 32
10 7 5 5 5 5 4 5 4 6 8 8 9 9 13 15 16 17 17 17 19 20 19 19 18 21 22 23 25 26 26 26 25 25 26 29 29 29 29 32 35 34 36
7 5 4 4 4 4 4 4 4 6 7 8 9 9 15 13 17 18 17 18 20 20 20 21 22 20 22 23 24 25 26 27 27 25 25 27 29 32 35 29 35 37 38
9 6 4 3 3 4 4 3 3 4 6 6 8 11 12 13 15 17 16 18 18 18 19 21 20 20 21 24 26 28 26 28 28 27 28 28 31 29 30 35 34 33 38
9 8 6 5 4 4 3 4 4 5 6 6 6 10 9 13 14 16 16 17 17 18 19 20 20 20 21 22 22 27 23 25 23 24 24 30 29 29 30 32 34 35 34
8 5 5 4 4 4 4 4 3 3 2 2 6 8 9 13 14 14 16 16 18 20 18 19 18 19 17 22 16 20 6 14 11 27 21 21 17 27 32 34 33 32 36
9 6 4 3 4 5 5 4 5 3 4 7 10 9 13 11 12 13 15 16 17 17 17 18 18 18 18 20 16 9 5 5 15 16 36 25 29 35 28 22 29 30 37
11 7 4 3 4 5 6 6 7 7 8 8 8 9 10 10 13 13 13 15 17 16 15 17 17 19 17 17 18 9 18 19 5 9 9 35 33 29 27 29 30 31 33
12 8 5 5 5 5 6 7 7 7 7 7 9 11 10 14 12 13 14 18 17 17 17 18 19 19 18 16 17 18 17 17 20 9 15 14 35 30 34 34 32 34 34
11 7 6 6 6 5 6 6 7 6 7 9 11 12 14 13 13 15 18 17 19 19 19 19 20 20 19 18 18 18 16 12 15 13 12 13 18 31 33 37 35 33 32
Wind_Direction
67 69 73 75 77 77 76 75 75 67 64 81 92 83 62 8 353 359 3 14 18 14 354 320 315 323 327 331 309 291 297 301 309 314 318 318 327 355 350 344 349 24 287
80 68 75 75 77 78 79 73 67 72 74 83 96 97 87 19 354 334 341 342 349 346 322 313 302 308 315 313 308 304 295 296 304 308 311 298 301 313 351 33 59 71 80
82 79 70 77 78 75 77 75 64 55 64 68 69 72 63 334 308 292 308 304 315 314 320 309 302 298 301 302 302 296 293 295 298 301 300 270 267 271 325 90 69 65 107
84 85 82 86 86 83 79 75 75 62 49 45 42 20 0 328 301 294 285 289 290 296 306 311 297 292 295 300 299 301 297 296 296 298 292 309 289 259 249 115 105 113 134
90 93 97 95 93 92 90 85 76 71 58 31 4 342 324 311 300 295 296 290 287 295 299 297 302 296 298 296 301 301 298 299 297 296 294 285 274 200 160 123 117 122 131
99 97 98 101 102 102 103 103 99 89 77 57 354 319 306 296 290 288 284 284 286 288 293 297 297 300 295 293 295 298 300 299 296 303 297 308 219 190 156 135 155 141 142
106 97 95 91 88 80 76 77 70 66 37 12 346 331 322 316 308 303 297 289 284 282 285 289 295 299 298 297 295 293 294 294 294 285 286 275 236 188 165 164 168 171 158
108 93 76 83 82 76 65 58 49 36 19 4 348 339 330 325 325 318 310 303 294 287 284 284 289 293 296 295 293 291 290 288 287 281 287 274 238 220 187 173 172 167 161
108 104 99 76 56 60 55 50 41 27 8 353 340 332 330 340 337 334 336 316 296 290 286 285 284 286 287 287 288 288 286 283 281 278 277 282 222 222 199 182 177 173 164
104 94 87 71 58 64 17 19 24 24 17 11 3 344 354 356 337 346 346 320 308 300 298 292 286 283 281 280 281 282 282 280 277 277 269 275 241 218 214 193 184 182 174
102 91 86 64 58 57 31 28 27 21 20 11 3 354 17 337 349 321 321 319 326 317 312 303 299 290 283 280 277 277 273 267 266 264 269 266 250 235 220 203 198 193 186
113 97 78 78 62 68 33 44 35 18 24 14 2 354 4 357 357 348 339 336 337 324 321 313 320 316 287 283 281 273 261 256 248 247 252 254 243 227 226 220 213 209 202
122 108 82 62 63 78 45 37 29 19 22 20 4 352 10 8 353 350 354 339 339 341 329 320 328 317 316 293 292 289 269 250 247 249 250 252 244 220 222 221 222 222 214
138 123 103 79 63 53 58 37 29 32 18 20 16 349 9 9 357 353 349 346 343 340 336 332 324 315 319 307 295 304 294 264 252 270 288 278 221 224 240 235 231 226 224
136 133 112 94 73 62 33 49 34 29 19 27 17 358 8 10 353 357 347 346 343 343 342 330 322 318 314 310 309 295 292 303 292 291 270 271 246 243 249 249 240 222 222
145 144 133 98 79 68 49 41 41 357 34 23 20 14 5 9 356 349 350 347 347 343 336 335 327 325 318 312 307 304 300 284 285 286 273 263 257 266 257 247 244 230 223
152 150 136 105 80 69 46 41 36 2 31 24 24 16 357 8 359 356 350 352 350 341 335 333 335 331 328 325 320 313 305 298 290 282 278 261 262 262 263 251 240 231 221
157 153 128 111 73 55 14 39 36 3 33 16 19 15 347 13 359 357 354 352 348 346 342 341 342 343 331 326 320 313 309 304 293 280 278 268 263 257 266 258 242 233 223
139 146 127 107 78 61 26 36 28 24 20 15 12 2 356 5 1 357 355 353 351 348 349 351 342 338 332 322 318 313 306 297 290 285 273 270 270 266 256 260 246 238 233
150 147 147 126 70 60 54 39 66 60 20 20 16 7 3 360 1 358 354 353 352 350 348 344 339 336 329 328 321 308 305 295 287 276 271 266 261 264 258 257 254 247 233
156 168 165 152 112 111 92 54 51 27 13 12 21 10 3 2 1 0 356 354 352 349 341 341 345 336 334 336 330 326 305 303 296 282 287 275 265 257 260 263 259 256 245
165 166 171 144 104 73 71 60 41 8 5 3 40 16 9 3 360 357 355 354 350 344 342 341 340 334 331 342 332 315 337 316 1 329 325 349 301 277 260 259 257 254 253
162 166 169 131 102 66 54 49 29 12 19 37 7 6 0 356 357 356 354 352 350 343 338 336 336 339 329 331 340 328 331 324 330 320 322 327 322 322 319 292 274 265 251
151 150 139 135 111 74 52 56 40 24 20 9 1 1 357 2 357 356 355 351 345 341 337 333 331 331 331 326 328 324 313 312 316 313 314 314 313 315 317 302 293 285 266
140 158 166 155 113 88 76 62 48 39 16 356 359 355 2 2 358 0 358 352 345 340 335 331 327 326 323 319 318 316 310 298 287 281 298 312 309 308 311 311 312 290 283
135 152 179 175 126 94 77 66 57 41 13 4 359 360 6 353 355 355 354 348 346 339 332 327 325 322 320 315 311 310 309 305 304 301 296 300 293 301 301 302 305 299 291
Height
781 781 782 784 785 786 787 789 788 789 790 790 791 793 794 795 795 795 795 795 796 796 797 797 797 796 797 795 795 795 794 794 793 793 793 793 792 792 793 792 793 793 792
783 784 785 786 787 787 788 790 791 791 791 792 793 794 795 795 795 796 796 796 796 797 798 798 798 797 797 796 795 795 794 794 794 792 792 793 792 793 792 791 793 793 793
785 786 786 787 788 789 790 790 792 793 794 794 794 794 795 795 796 796 796 796 797 797 798 798 798 798 797 797 796 795 794 793 793 792 791 791 793 793 792 792 792 793 794
785 786 788 789 789 790 790 791 792 794 795 795 795 795 795 795 796 796 797 796 796 797 797 797 798 798 797 797 796 795 794 793 792 791 790 791 794 792 793 791 793 794 794
785 788 789 790 790 791 791 791 793 793 795 796 796 795 795 795 796 796 796 796 797 796 796 797 797 797 795 796 795 794 794 793 792 791 790 792 791 793 792 792 793 794 794
788 788 790 791 791 792 792 792 792 793 794 794 795 795 795 795 795 795 795 795 796 796 796 796 796 795 795 795 794 793 793 792 792 790 790 790 790 790 790 791 793 794 795
789 789 791 792 793 794 794 794 794 793 794 795 795 795 795 795 794 794 794 794 794 794 794 795 795 795 794 793 792 792 791 791 791 790 790 791 789 789 789 790 792 794 795
790 792 793 794 794 794 795 795 795 795 795 795 795 794 794 794 794 793 793 793 793 793 793 793 793 793 792 792 791 790 790 790 789 789 789 789 788 788 789 789 791 793 795
791 792 795 796 795 796 796 796 796 796 795 795 795 795 794 794 794 794 793 792 792 791 791 791 791 790 790 790 789 788 788 788 787 787 786 786 786 787 788 788 790 792 794
793 794 796 798 798 797 798 797 797 796 796 795 795 794 794 794 793 793 792 791 791 789 789 789 788 788 787 787 786 785 785 785 784 785 784 784 784 785 786 788 789 791 793
794 795 797 799 798 799 800 799 798 798 797 797 796 794 794 793 793 792 791 790 789 788 787 786 785 784 784 783 782 782 781 780 780 781 780 781 782 784 783 785 788 790 792
794 796 798 797 798 799 800 800 799 798 798 798 796 794 794 793 793 792 791 789 788 786 785 785 783 781 781 780 779 777 776 775 776 776 776 777 778 779 782 783 785 788 791
794 796 798 798 797 798 799 799 800 799 797 797 796 794 794 794 793 792 790 788 787 786 785 782 781 781 780 779 778 776 772 772 773 772 771 773 774 775 777 779 782 785 787
794 797 797 798 797 798 799 799 800 800 799 797 798 796 794 794 794 792 791 789 788 786 785 783 781 778 777 776 774 772 772 772 772 772 768 769 771 772 773 775 776 780 784
792 796 798 797 797 798 800 798 799 799 799 798 798 797 797 796 795 793 792 791 789 787 784 781 780 778 775 772 770 769 767 766 765 766 767 767 768 768 770 770 772 774 777
791 794 797 796 796 798 799 800 800 798 799 799 799 798 798 798 797 795 793 791 790 786 785 783 781 778 775 772 768 766 765 764 763 763 763 764 763 764 764 764 766 767 770
791 795 796 796 796 798 799 800 800 799 800 800 799 800 798 799 798 796 794 792 790 787 786 784 781 778 774 770 766 764 762 760 760 759 759 759 759 759 758 759 759 760 762
792 796 796 796 797 799 800 799 800 800 801 801 800 800 798 799 797 796 794 792 789 788 786 783 781 778 775 771 767 763 759 757 755 754 754 754 754 754 753 752 753 753 755
792 796 798 797 796 798 799 799 800 800 802 801 801 800 799 799 797 796 794 793 790 789 787 784 782 780 775 771 767 762 758 753 750 750 748 748 748 746 747 746 747 749 751
791 794 796 796 796 797 799 800 799 800 801 801 802 801 801 800 798 797 796 793 791 790 788 786 784 781 778 772 767 759 753 748 744 742 742 741 741 740 739 740 739 740 741
790 793 795 796 796 796 797 797 798 799 801 801 801 802 803 801 800 798 798 795 793 792 790 788 785 782 778 773 766 758 745 737 736 738 737 735 735 734 733 733 734 733 733
791 794 796 797 796 797 797 797 798 798 799 800 801 802 801 802 800 799 798 797 795 792 791 789 787 783 780 778 772 764 750 738 734 736 734 732 733 732 728 727 728 727 726
790 793 796 797 797 798 798 798 798 798 799 799 801 802 801 801 801 799 798 797 796 795 793 791 789 787 782 779 778 776 764 754 749 734 728 731 730 727 725 724 722 721 720
789 793 795 798 798 797 798 799 799 800 801 802 803 802 802 801 800 799 798 797 797 795 793 791 789 787 784 780 778 776 774 769 760 740 735 733 729 726 722 719 716 714 713
788 794 797 798 799 799 798 799 800 801 803 803 803 802 801 799 800 799 798 797 797 795 792 790 787 785 784 782 778 775 772 768 764 756 735 733 730 728 722 718 713 709 707
789 795 798 798 799 800 799 800 800 801 802 802 801 800 799 799 799 799 797 797 795 794 792 790 787 784 781 780 777 774 771 768 762 756 746 736 731 724 721 715 711 706 701